Showing default

MIDAS 6 (FTV 1169), 574

Orbit data source: Space-Track

MIDAS 6 (FTV 1169), 574 is a payload satellite owned by USAF SSD (US) in LEO that was launched on Thu, 09 May 1963 UTC via an ATLAS AGENA B launch vehicle from the Air Force Western Test Range (AFWTR). Payload-class satellites include a variety of spacecraft equipped with specific instruments for various scientific and technological missions. These include communications satellites like Starlink; space stations such as the ISS; scientific satellites like the Hubble; Earth observation satellites from companies like Planet Labs, Umbra, and HawkEye 360; GPS; miniature CubeSats for education and research; and military/defense satellites.

Loading next visibility...
Identifier
574, 1963-014A
Orbit
LEO
Country
Flag of USUS
Related business
Manufacturer
LMSC
Mission
Spacecraft
Bus & Motor
MIDAS, Unknown motor
Mass
~1,540 kg wet, ~840 kg dry
Launch date (UTC)
1963-05-09 (63 years ago)
Launch vehicle
ATLAS AGENA B
Launch site
Air Force Western Test Range (AFWTR)
Object type
Payload
Rocket body
Debris
Shape & HBR
CONE, 1.1 m
Radar Cross Section
Large (>1 m²)

Expand to show TLE details & history
Last TLE update: 14 hours ago

TLE from 14 hours ago
0 MIDAS 6 (FTV 1169)
1 00574U 63014A   26254.20861935 -.00000002  00000-0 -21428-2 0  9996
2 00574  87.3641 187.6893 0032076  29.0381 331.2251  8.65277038225226
Epoch: 2026-09-11T05:00Z
TLE epoch observation values (Epoch: 2026-09-11T05:00:24.711Z)
Latitude
0.00006°
Longitude
122.35107°
Altitude
3,618.139 km
Speed
6.324 km/s
True Right ascension
12h 30m 45s
True Declination
0° 00' 00"
Sunlit
Object was in daylight at epoch
Visualization orbit readout
Latitude
Unknown
Longitude
Unknown
Altitude
Unknown
Speed
Unknown
Apparent Right ascension
Unknown
Apparent Declination
Unknown
Sunlit
N/A
Visualization observer readout
Local Sidereal Time
10:57:33
Azimuth
Unknown
Elevation
Unknown
Doppler factor
Unknown
Orbital elements
Apogee altitude
3,674.073 km
Perigee altitude
3,609.792 km
Semi-major axis
10,020.069 km
Eccentricity
0.00321
Inclination
87.3641°
RAAN
187.6893°
Arg. of periapsis
29.0381°
True anomaly
331.04754°
Mean anomaly
331.2251°
Eccentric anomaly
331.13638°
Mean motion
2.1639 °/min
Orbital period
166.37 mins
BSTAR
-0.0021428
Loading maneuver chart data...
Computing Atmospheric mass density...

Documentation

Showing up to 5 results
|